Location: ????????
(60.5616°N, 46.8254°E)
Time: 02:05:53
(UTC+00:00)

SPOT 3 Rocket - Pass Details

Date: 18 February 2020
Orbit: 779 x 795 km, 98.8° (Epoch: 05 April)

Event Time Altitude Azimuth Distance (km) Brightness Sun altitude
Exits shadow 15:28:42 - 130° (SE) 2,407 5.6 -12.8°
Reaches altitude 10° 15:28:51 10° 129° (SE) 2,354 5.6 -12.9°
Maximum altitude 15:33:46 45° 58° (ENE) 1,076 3.9 -13.5°
Drops below altitude 10° 15:38:44 10° 348° (NNW) 2,376 6.2 -14.1°
Sets 15:41:08 0° 342° (NNW) 3,311 7.1 -14.4°
